sat.trackr.live / text

‹ back to catalog

WGS F4 (USA 233)

NORAD 38070 · 2012-003A

PAYLOAD ACTIVE UNKNOWN

§ Identity

Operator
Country
US
Launch date
2012-01-20
Launch site
AFETR
Launch vehicle
Mass (kg)
RCS (m²)
15.86

Purposes: comms

External: N2YO · Heavens-Above · Gunter

§ Orbital elements

Epoch: 2026-09-04T01:02:12.299424Z

Period
1,436.11 min
Inclination
0.0128°
Eccentricity
0.0000666
Mean motion
1.00270861 rev/d
Perigee alt
35,784.0 km
Apogee alt
35,789.7 km
Semi-major
42,165.0 km
B*
0.0000e+0
RAAN
144.9615°
Arg perigee
139.1069°
Mean anomaly
163.0716°
Rev number
4,493

§ Raw data

WGS F4 (USA 233)1 38070U 12003A   26247.04319791 -.00000219  00000+0  00000+0 0  99902 38070   0.0128 144.9615 0000666 139.1069 163.0716  1.00270861 44937

JSON: /api/v1/satellites/38070 · /tle

For live sub-satellite position, see the globe view (requires WebGL).

§ Visibility from observer

Set your observer location to see the next 7 days of passes ≥ 10°. The values pass through the URL so the page stays shareable.

No JS? Fill the form by hand. The geolocation button needs JavaScript.